You are here:
  • Home »
  • Tender »
  • Open Tender Enquiry

Open Tender Enquiry

1100-1001 1000-901 900-801 800-701 700-601 600-501 500-401 400-301 300-201
200-101 100-1 1300-1251 1250-1201 1200-1151 1150-1101 1100-1051 1050-1001
1000-951 950-901 900-851 850-801 800-751 750-701 700-651 650-601
600-551 550-501 500-451 450-401 400-351 350-301 300-251 250-201
200-151 150-101 100-51 50-01

Sl.No. Enquiry No. Date Due on Short Description
1000 2/PE170868/1new 14/09/2017 18/10/2017 Rubber Hose Pipe
999 2/PE171075/1new 14/09/2017 18/10/2017 Pump
998 2/PE170969/1new 14/09/2017 18/10/2017 Spare for Thickener
997 2/PE171752/8new 14/09/2017 18/10/2017 MS Flange
996 2/PE171103/8new 14/09/2017 17/10/2017 Level Transmitter
995 2/PE171706/8new 14/09/2017 17/10/2017 Belt Conveyor
994 2/PE171110/8new 14/09/2017 17/10/2017 Signal Converter Unit
993 2/PE171426/8new 14/09/2017 17/10/2017 GI Pipe
992 2/PE171096/8new 14/09/2017 17/10/2017 PVDF Manifold
991 Corrigendum to 3/PE170931/1 10/08/2017 28/09/2017 SPEED GOVERNER
990 Corrigendum to 3/PE171545/8 18/08/2017 28/09/2017 RELAY FOR ST/MT
989 3/PE171794/8 09/09/2017 12/10/2017 CARD FOR CPU
988 3/PE170797/7 09/09/2017 12/10/2017 SOLENOID
987 3/PE170795/7 09/09/2017 12/10/2017 MOUNTING RUBBER
986 3/PE171714/8 09/09/2017 12/10/2017 FUEL WATER SEPARATOR
985 3/PE170754/7 09/09/2017 12/10/2017 RADIATOR
984 3/PE170799/7 09/09/2017 12/10/2017 PIPE BLACK HEAVY DUTY
983 3/PE171800/8 09/09/2017 12/10/2017 SPARES FOR BEML DOZER
982 3/PE170793/7 09/09/2017 12/10/2017 DIRECTIONAL CONTROL VALVE
981 3/PE171146/1 09/09/2017 12/10/2017 FLUSH DOOR SHUTTER
980 3/PE171710/8 09/09/2017 12/10/2017 SALWOOD WOODEN BLOCK
979 3/PE171750/8 09/09/2017 12/10/2017 RAIN COAT
978 3/PE170803/7 09/09/2017 12/10/2017 FUEL CONTROL NOZZLE
977 3/PE171799/8 09/09/2017 12/10/2017 RAIN COAT
976 3/PE170802/7 09/09/2017 12/10/2017 PRESSURE SWITCH
975 3/PE170800/7 09/09/2017 12/10/2017 DIRECTIONAL VALVE
974 3/PE170798/7 09/09/2017 12/10/2017 CONTACTOR
973 3/PE170796/7 09/09/2017 12/10/2017 SIDE BOLT WITH NUT
972 3/PE171797/8 09/09/2017 12/10/2017 WRIST WATCH
971 3/PE170794/7 09/09/2017 12/10/2017 CUSHION VALVE
970 3/PE171138/1 09/09/2017 12/10/2017 INJECTOR ASSY.
969 3/PE170714/7 07/09/2017 10/10/2017 ELEMENT AIR CLEANER PRIMARY
968 3/PE170771/7 07/09/2017 10/10/2017 RETREADING OF TYRES
967 3/PE170770/7 07/09/2017 10/10/2017 VALVE BLOCK
966 3/PE170769/7 07/09/2017 10/10/2017 CATRIDGE
965 3/PE171078/1 06/09/2017 09/10/2017 PNEUMATIC CYLINDER
964 3/PE170724/7 07/09/2017 10/10/2017 FUEL FILTER PRIMARY
963 3/PE170757/7 07/09/2017 10/10/2017 NYROSTEN
962 3/PE170694/7 06/09/2017 09/10/2017 SHOCK ABSORBER
961 3/PE170717/7 07/09/2017 10/10/2017 3 POLE CONTACTOR
960 3/PE170712/7 07/09/2017 10/10/2017 FUEL FILTER CARTRIDGE
959 3/PE170737/7 08/09/2017 11/10/2017 ELEMENT FILTER
958 3/PE171738/8 08/09/2017 11/10/2017 SEAT ASSY.
957 3/PE171749/8 08/09/2017 11/10/2017 RUSTOLENE
956 3/PE171743/8 08/09/2017 11/10/2017 BIN BUCKET PLASTIC BUCKET
955 3/PE171741/8 08/09/2017 11/10/2017 DR. FIXIT
954 3/PE170733/7 08/09/2017 11/10/2017 GATE VALVE
953 3/PE170788/7 08/09/2017 11/10/2017 BUFFER
952 3/PE171131/1 08/09/2017 11/10/2017 SPARES FOR AIR COMPRESSOR
951 3/PE171736/8 08/09/2017 11/10/2017 SEAT ASSY.
950 3/PE171712/8 08/09/2017 11/10/2017 PAINT
949 2/PE171035/1 06/09/2017 16/10/2017 Diaphragm for Dorrco Pump
948 2/PE170860/1 11/09/2017 24/10/2017 Spare for Air Compressor
947 2/PE170861/1 11/09/2017 24/10/2017 Spare for PLC
946 2/PE170863/1 11/09/2017 24/10/2017 Head Bolt & Nut
945 2/PE170871/1 11/09/2017 24/10/2017 Electrolytic Capacitor
944 2/PE170857/1 11/09/2017 24/10/2017 Oscilloscope
943 2/PE170859/1 11/09/2017 24/10/2017 MS Rectangular Key
942 2/PE170856/1 11/09/2017 24/10/2017 Kettle Element
941 2/PE170850/1 11/09/2017 24/10/2017 Variable Frequency Drive
940 2/PE170873/1 11/09/2017 24/10/2017 Analytical Balance
939 2/PE170864/1 11/09/2017 24/10/2017 Gasket Sheet
938 2/PE171307/8 11/09/2017 23/10/2017 Vacuum Hose
937 2/PE171316/8 11/09/2017 23/10/2017 Differential Pressure Switch
936 2/PE171311/8 11/09/2017 23/10/2017 Control Valve
935 2/PE171320/8 11/09/2017 23/10/2017 Respirator Mask
934 2/PE171419/8 11/09/2017 23/10/2017 Plug Valve
933 2/PE170848/1 11/09/2017 23/10/2017 Digital Temp. controller
932 2/PE171123/8 11/09/2017 23/10/2017 Gate Valve
931 2/PE171417/8 11/09/2017 23/10/2017 Tissue Paper
930 2/PE171309/8 11/09/2017 23/10/2017 Power Adaptor
929 3/PE170773/1 07/09/2017 17/10/2017 BEARING SLEEVE
928 1/PE170772/1 07/09/2017 07/10/2017 CLOSING COIL SET (2 COIlS)
927 3/PE170200/8 21/08/2017 21/09/2017 G.I.PIPE
926 3/PE171713/8 08/09/2017 11/10/2017 BRONZE BUSH
925 3/PE171717/8 08/09/2017 11/10/2017 SEAL KIT
924 3/PE171720/8 08/09/2017 11/10/2017 BATTERY
923 3/PE170732/7 08/09/2017 11/10/2017 ELEMENT OIL FILTER
922 3/PE171724/8 08/09/2017 11/10/2017 PIN
921 3/PE170730/7 08/09/2017 11/10/2017 OIL FILTER
920 3/PE170729/7 08/09/2017 11/10/2017 FUEL FILTER
919 3/PE170728/7 07/09/2017 10/10/2017 ELEMENT FILTER LUB OIL
918 3/PE170776/7 07/09/2017 10/10/2017 PRESSURE SWITCH
917 3/PE170774/7 07/09/2017 10/10/2017 RELAY
916 3/PE170773/7 07/09/2017 10/10/2017 SOLENOID COIL
915 3/PE170772/7 07/09/2017 10/10/2017 VALVE ASSY.
914 3/PE171708/8 07/09/2017 10/10/2017 COMPRESSOR OIL ROTO INJECT
913 3/PE170736/7 08/09/2017 11/10/2017 ELEMENT OIL FILTER
912 3/PE170735/7 08/09/2017 11/10/2017 OIL FILTER ELEMENT
911 3/PE171751/8 08/09/2017 11/10/2017 SAW DUST FINE QUALITY
910 3/PE170789/7 08/09/2017 11/10/2017 WIDE FLOOD LAMP
909 3/PE170787/7 08/09/2017 11/10/2017 SOLENOID VALVE ASSY.
908 3/PE170786/7 08/09/2017 11/10/2017 VALVE SECTION ASSY.
907 3/PE170785/7 08/09/2017 11/10/2017 SEAL KIT CONVERTER
906 3/PE170768/7 07/09/2017 10/10/2017 CABLE RPM METER
905 3/PE170723/7 07/09/2017 10/10/2017 HT HEX NUT
904 3/PE171120/1 07/09/2017 10/10/2017 BULK HEAD ADAPTER
903 3/PE170775/7 07/09/2017 10/10/2017 OVER-HEAD WIRE ROPE
902 3/PE171776/8 07/09/2017 10/10/2017 HYDRAULIC MOTOR
901 3/PE170716/7 07/09/2017 10/10/2017 G.I.PIPE